Wetterdaten: Montag, 01.02.2016
Datum Zeit Auen-Temp. Temp gefhlt Luftfeuchte Luftdruck Regen Wind Richtung Richtung Taupunkt Windben
01.02.2016 00:00 8,0 C 7,4 C 87 % 1015,1 hPa 0,0 mm 20,2 km/h (4 Bft) W-SW 247 6,0 C 33,1 km/h (5 Bft)
01.02.2016 00:05 8,0 C 7,4 C 87 % 1015,2 hPa 0,0 mm 20,5 km/h (4 Bft) W-SW 247 6,0 C 28,5 km/h (4 Bft)
01.02.2016 00:10 8,1 C 7,5 C 86 % 1015,2 hPa 0,0 mm 18,9 km/h (3 Bft) W 270 5,9 C 23,8 km/h (4 Bft)
01.02.2016 00:15 8,2 C 7,3 C 86 % 1015,2 hPa 0,0 mm 19,4 km/h (3 Bft) W-NW 292 6,0 C 19,4 km/h (3 Bft)
01.02.2016 00:20 8,4 C 7,7 C 86 % 1015,2 hPa 0,0 mm 23,0 km/h (4 Bft) NW 315 6,2 C 31,8 km/h (5 Bft)
01.02.2016 00:25 8,2 C 7,5 C 86 % 1015,2 hPa 0,0 mm 22,0 km/h (4 Bft) SW 225 6,0 C 49,2 km/h (6 Bft)
01.02.2016 00:30 8,1 C 7,5 C 86 % 1015,2 hPa 0,0 mm 16,8 km/h (3 Bft) W-SW 247 5,9 C 18,9 km/h (3 Bft)
01.02.2016 00:35 8,3 C 7,5 C 86 % 1015,2 hPa 0,0 mm 17,3 km/h (3 Bft) W-NW 292 6,1 C 27,4 km/h (4 Bft)
01.02.2016 00:40 8,4 C 7,8 C 86 % 1015,2 hPa 0,0 mm 17,6 km/h (3 Bft) W-SW 247 6,2 C 25,1 km/h (4 Bft)
01.02.2016 00:45 8,7 C 7,8 C 85 % 1015,6 hPa 0,0 mm 18,9 km/h (3 Bft) S 180 6,3 C 19,2 km/h (3 Bft)
01.02.2016 00:50 8,8 C 7,9 C 85 % 1015,6 hPa 0,0 mm 21,0 km/h (4 Bft) NW 315 6,4 C 34,4 km/h (5 Bft)
01.02.2016 00:55 8,9 C 8,3 C 84 % 1015,6 hPa 0,0 mm 19,9 km/h (4 Bft) W 270 6,3 C 52,8 km/h (7 Bft)
01.02.2016 01:00 9,0 C 8,5 C 83 % 1015,6 hPa 0,0 mm 21,8 km/h (4 Bft) W 270 6,3 C 26,4 km/h (4 Bft)
01.02.2016 01:05 9,0 C 8,6 C 83 % 1015,5 hPa 0,0 mm 22,8 km/h (4 Bft) W-NW 292 6,3 C 60,1 km/h (7 Bft)
01.02.2016 01:10 9,1 C 8,7 C 83 % 1015,5 hPa 0,0 mm 21,2 km/h (4 Bft) W-NW 292 6,4 C 45,8 km/h (6 Bft)
01.02.2016 01:15 9,2 C 8,8 C 82 % 1015,5 hPa 0,0 mm 22,0 km/h (4 Bft) O 90 6,3 C 20,5 km/h (4 Bft)
01.02.2016 01:20 9,2 C 8,8 C 83 % 1015,5 hPa 0,0 mm 22,0 km/h (4 Bft) W-SW 247 6,5 C 26,9 km/h (4 Bft)
01.02.2016 01:25 9,3 C 8,9 C 82 % 1015,7 hPa 0,0 mm 21,0 km/h (4 Bft) N-NW 337 6,4 C 30,6 km/h (5 Bft)
01.02.2016 01:30 9,4 C 9,0 C 82 % 1015,7 hPa 0,0 mm 22,5 km/h (4 Bft) W 270 6,5 C 21,0 km/h (4 Bft)
01.02.2016 01:35 9,4 C 9,0 C 82 % 1015,7 hPa 0,0 mm 22,5 km/h (4 Bft) W-SW 247 6,5 C 16,8 km/h (3 Bft)
01.02.2016 01:40 9,4 C 9,1 C 82 % 1015,7 hPa 0,0 mm 19,4 km/h (3 Bft) W 270 6,5 C 28,2 km/h (4 Bft)
01.02.2016 01:45 9,4 C 9,1 C 82 % 1015,8 hPa 0,0 mm 18,4 km/h (3 Bft) SO 135 6,5 C 18,4 km/h (3 Bft)
01.02.2016 01:50 9,4 C 9,0 C 82 % 1015,8 hPa 0,0 mm 20,2 km/h (4 Bft) N-NW 337 6,5 C 25,4 km/h (4 Bft)
01.02.2016 01:55 9,6 C 9,1 C 81 % 1015,8 hPa 0,0 mm 21,2 km/h (4 Bft) W-SW 247 6,5 C 26,9 km/h (4 Bft)
01.02.2016 02:00 9,8 C 9,3 C 80 % 1015,8 hPa 0,0 mm 24,1 km/h (4 Bft) NW 315 6,5 C 28,5 km/h (4 Bft)
01.02.2016 02:05 9,8 C 9,4 C 80 % 1015,7 hPa 0,0 mm 22,3 km/h (4 Bft) W-NW 292 6,5 C 60,9 km/h (7 Bft)
01.02.2016 02:10 9,7 C 9,4 C 80 % 1015,7 hPa 0,0 mm 19,4 km/h (3 Bft) W 270 6,4 C 18,9 km/h (3 Bft)
01.02.2016 02:15 9,8 C 9,3 C 80 % 1015,7 hPa 0,0 mm 20,5 km/h (4 Bft) W 270 6,5 C 45,3 km/h (6 Bft)
01.02.2016 02:20 9,9 C 9,4 C 79 % 1015,7 hPa 0,0 mm 22,0 km/h (4 Bft) NW 315 6,4 C 22,5 km/h (4 Bft)
01.02.2016 02:25 9,9 C 9,5 C 79 % 1016,5 hPa 0,0 mm 23,8 km/h (4 Bft) W-NW 292 6,4 C 56,4 km/h (7 Bft)
01.02.2016 02:30 10,1 C 9,7 C 78 % 1016,5 hPa 0,0 mm 27,4 km/h (4 Bft) S 180 6,4 C 30,6 km/h (5 Bft)
01.02.2016 02:35 10,1 C 9,6 C 78 % 1016,5 hPa 0,0 mm 29,5 km/h (5 Bft) W 270 6,4 C 66,5 km/h (8 Bft)
01.02.2016 02:40 10,0 C 9,6 C 78 % 1016,5 hPa 0,0 mm 26,4 km/h (4 Bft) W 270 6,3 C 47,9 km/h (6 Bft)
01.02.2016 02:45 10,1 C 9,7 C 78 % 1016,5 hPa 0,0 mm 25,6 km/h (4 Bft) W-NW 292 6,4 C 30,8 km/h (5 Bft)
01.02.2016 02:50 10,2 C 9,8 C 77 % 1016,5 hPa 0,0 mm 28,5 km/h (4 Bft) W-SW 247 6,4 C 26,7 km/h (4 Bft)
01.02.2016 02:55 10,1 C 9,4 C 78 % 1016,5 hPa 0,0 mm 28,2 km/h (4 Bft) W 270 6,4 C 52,6 km/h (7 Bft)
01.02.2016 03:00 10,0 C 9,6 C 78 % 1016,5 hPa 0,0 mm 22,3 km/h (4 Bft) W-SW 247 6,3 C 30,3 km/h (5 Bft)
01.02.2016 03:05 10,0 C 9,5 C 78 % 1016,6 hPa 0,0 mm 21,0 km/h (4 Bft) W-SW 247 6,3 C 17,3 km/h (3 Bft)
01.02.2016 03:10 10,0 C 9,6 C 79 % 1016,6 hPa 0,0 mm 25,1 km/h (4 Bft) W 270 6,5 C 42,5 km/h (6 Bft)
01.02.2016 03:15 10,2 C 9,7 C 78 % 1016,6 hPa 0,0 mm 27,4 km/h (4 Bft) NW 315 6,5 C 37,5 km/h (5 Bft)
01.02.2016 03:20 10,1 C 9,6 C 79 % 1016,6 hPa 0,0 mm 26,9 km/h (4 Bft) W-SW 247 6,6 C 34,7 km/h (5 Bft)
01.02.2016 03:25 10,1 C 9,7 C 79 % 1017,4 hPa 0,0 mm 24,1 km/h (4 Bft) NW 315 6,6 C 21,8 km/h (4 Bft)
01.02.2016 03:30 10,1 C 9,6 C 79 % 1017,4 hPa 0,0 mm 25,6 km/h (4 Bft) W-NW 292 6,6 C 40,1 km/h (6 Bft)
01.02.2016 03:35 10,0 C 9,4 C 79 % 1017,4 hPa 0,0 mm 25,6 km/h (4 Bft) W-NW 292 6,5 C 44,5 km/h (6 Bft)
01.02.2016 03:40 10,0 C 9,3 C 79 % 1017,4 hPa 0,0 mm 26,4 km/h (4 Bft) W-NW 292 6,5 C 28,0 km/h (4 Bft)
01.02.2016 03:45 10,1 C 9,4 C 79 % 1017,7 hPa 0,0 mm 26,7 km/h (4 Bft) W-SW 247 6,6 C 23,3 km/h (4 Bft)
01.02.2016 03:50 10,1 C 9,2 C 79 % 1017,7 hPa 0,0 mm 27,4 km/h (4 Bft) S 180 6,6 C 51,5 km/h (7 Bft)
01.02.2016 03:55 10,1 C 9,2 C 79 % 1017,7 hPa 0,0 mm 27,7 km/h (4 Bft) N 360 6,6 C 69,9 km/h (8 Bft)
01.02.2016 04:00 10,1 C 9,2 C 79 % 1017,7 hPa 0,0 mm 27,4 km/h (4 Bft) W 270 6,6 C 20,5 km/h (4 Bft)
01.02.2016 04:05 10,0 C 9,4 C 79 % 1017,8 hPa 0,0 mm 27,7 km/h (4 Bft) W 270 6,5 C 27,2 km/h (4 Bft)
01.02.2016 04:10 9,9 C 9,2 C 80 % 1017,8 hPa 0,0 mm 29,8 km/h (5 Bft) O-NO 67 6,6 C 35,7 km/h (5 Bft)
01.02.2016 04:15 9,8 C 8,8 C 81 % 1017,8 hPa 0,0 mm 27,7 km/h (4 Bft) W-SW 247 6,7 C 46,1 km/h (6 Bft)
01.02.2016 04:20 9,6 C 8,8 C 83 % 1017,8 hPa 0,0 mm 27,2 km/h (4 Bft) N-NO 22 6,9 C 49,2 km/h (6 Bft)
01.02.2016 04:25 9,6 C 8,5 C 83 % 1018,0 hPa 0,0 mm 27,4 km/h (4 Bft) W-SW 247 6,9 C 30,0 km/h (5 Bft)
01.02.2016 04:30 9,6 C 8,7 C 83 % 1018,0 hPa 0,0 mm 29,3 km/h (5 Bft) W 270 6,9 C 47,6 km/h (6 Bft)
01.02.2016 04:32 9,6 C 8,4 C 83 % 1018,0 hPa 0,0 mm 29,3 km/h (5 Bft) W 270 6,9 C 47,6 km/h (6 Bft)
01.02.2016 04:35 9,6 C 8,7 C 83 % 1018,0 hPa 0,0 mm 27,4 km/h (4 Bft) W-SW 247 6,9 C 54,9 km/h (7 Bft)
01.02.2016 04:40 9,5 C 8,4 C 84 % 1018,0 hPa 0,0 mm 25,9 km/h (4 Bft) W-SW 247 6,9 C 56,7 km/h (7 Bft)
01.02.2016 04:45 9,3 C 8,5 C 85 % 1018,2 hPa 0,0 mm 23,8 km/h (4 Bft) W 270 6,9 C 38,1 km/h (5 Bft)
01.02.2016 04:50 9,4 C 8,6 C 84 % 1018,2 hPa 0,0 mm 25,1 km/h (4 Bft) W-SW 247 6,8 C 34,7 km/h (5 Bft)
01.02.2016 04:55 9,4 C 8,6 C 84 % 1018,2 hPa 0,0 mm 26,7 km/h (4 Bft) N-NO 22 6,8 C 43,0 km/h (6 Bft)
01.02.2016 05:00 9,6 C 8,7 C 83 % 1018,2 hPa 0,0 mm 26,4 km/h (4 Bft) N-NW 337 6,9 C 26,9 km/h (4 Bft)
01.02.2016 05:05 9,6 C 8,4 C 81 % 1018,3 hPa 0,0 mm 27,7 km/h (4 Bft) NW 315 6,5 C 34,7 km/h (5 Bft)
01.02.2016 05:10 9,7 C 8,9 C 80 % 1018,3 hPa 0,0 mm 23,6 km/h (4 Bft) W 270 6,4 C 37,8 km/h (5 Bft)
01.02.2016 05:15 10,0 C 9,3 C 78 % 1018,3 hPa 0,0 mm 24,1 km/h (4 Bft) W-SW 247 6,3 C 45,3 km/h (6 Bft)
01.02.2016 05:20 10,0 C 9,4 C 77 % 1018,3 hPa 0,0 mm 24,1 km/h (4 Bft) NW 315 6,2 C 16,3 km/h (3 Bft)
01.02.2016 05:25 10,0 C 9,5 C 77 % 1018,5 hPa 0,0 mm 21,8 km/h (4 Bft) W-SW 247 6,2 C 21,8 km/h (4 Bft)
01.02.2016 05:30 10,1 C 9,7 C 76 % 1018,5 hPa 0,0 mm 22,0 km/h (4 Bft) W 270 6,1 C 18,1 km/h (3 Bft)
01.02.2016 05:35 10,0 C 9,6 C 75 % 1018,5 hPa 0,0 mm 23,6 km/h (4 Bft) NW 315 5,8 C 23,0 km/h (4 Bft)
01.02.2016 05:40 10,2 C 9,8 C 75 % 1018,5 hPa 0,0 mm 20,7 km/h (4 Bft) W 270 6,0 C 22,5 km/h (4 Bft)
01.02.2016 05:45 10,2 C 9,7 C 74 % 1018,7 hPa 0,0 mm 19,9 km/h (4 Bft) W 270 5,8 C 43,5 km/h (6 Bft)
01.02.2016 05:50 10,1 C 9,8 C 74 % 1018,7 hPa 0,0 mm 17,9 km/h (3 Bft) W-SW 247 5,7 C 13,2 km/h (3 Bft)
01.02.2016 05:55 10,1 C 9,9 C 74 % 1018,7 hPa 0,0 mm 16,1 km/h (3 Bft) S 180 5,7 C 17,3 km/h (3 Bft)
01.02.2016 06:00 10,0 C 9,9 C 73 % 1018,7 hPa 0,0 mm 14,2 km/h (3 Bft) W 270 5,4 C 26,9 km/h (4 Bft)
01.02.2016 06:05 10,1 C 9,9 C 73 % 1019,4 hPa 0,0 mm 16,1 km/h (3 Bft) NW 315 5,5 C 19,4 km/h (3 Bft)
01.02.2016 06:10 10,2 C 9,8 C 73 % 1019,4 hPa 0,0 mm 16,1 km/h (3 Bft) W 270 5,6 C 36,8 km/h (5 Bft)
01.02.2016 06:15 10,2 C 10,0 C 73 % 1019,4 hPa 0,0 mm 15,0 km/h (3 Bft) SW 225 5,6 C 23,0 km/h (4 Bft)
01.02.2016 06:20 10,2 C 10,0 C 72 % 1019,4 hPa 0,0 mm 16,1 km/h (3 Bft) W 270 5,4 C 44,5 km/h (6 Bft)
01.02.2016 06:25 10,4 C 10,1 C 72 % 1019,8 hPa 0,0 mm 17,9 km/h (3 Bft) S 180 5,6 C 19,7 km/h (3 Bft)
01.02.2016 06:30 10,4 C 10,1 C 72 % 1019,8 hPa 0,0 mm 21,0 km/h (4 Bft) SW 225 5,6 C 30,0 km/h (5 Bft)
01.02.2016 06:35 10,5 C 10,0 C 72 % 1019,8 hPa 0,0 mm 22,0 km/h (4 Bft) W 270 5,7 C 33,1 km/h (5 Bft)
01.02.2016 06:40 10,5 C 9,9 C 71 % 1019,8 hPa 0,0 mm 22,5 km/h (4 Bft) W 270 5,5 C 40,1 km/h (6 Bft)
01.02.2016 06:45 10,5 C 10,0 C 71 % 1020,2 hPa 0,0 mm 21,5 km/h (4 Bft) NW 315 5,5 C 16,3 km/h (3 Bft)
01.02.2016 06:50 10,5 C 10,1 C 71 % 1020,2 hPa 0,0 mm 21,2 km/h (4 Bft) W 270 5,5 C 26,4 km/h (4 Bft)
01.02.2016 06:55 10,6 C 10,2 C 71 % 1020,2 hPa 0,0 mm 22,0 km/h (4 Bft) W-SW 247 5,6 C 31,6 km/h (5 Bft)
01.02.2016 07:00 10,6 C 10,0 C 71 % 1020,2 hPa 0,0 mm 24,6 km/h (4 Bft) W-SW 247 5,6 C 69,1 km/h (8 Bft)
01.02.2016 07:05 10,7 C 10,3 C 70 % 1020,4 hPa 0,0 mm 22,8 km/h (4 Bft) W-SW 247 5,5 C 21,5 km/h (4 Bft)
01.02.2016 07:10 10,6 C 10,0 C 70 % 1020,4 hPa 0,0 mm 21,8 km/h (4 Bft) W 270 5,4 C 17,9 km/h (3 Bft)
01.02.2016 07:15 10,6 C 10,3 C 70 % 1020,4 hPa 0,0 mm 21,2 km/h (4 Bft) W 270 5,4 C 30,8 km/h (5 Bft)
01.02.2016 07:20 10,6 C 10,3 C 70 % 1020,4 hPa 0,0 mm 22,3 km/h (4 Bft) W-SW 247 5,4 C 19,4 km/h (3 Bft)
01.02.2016 07:25 10,5 C 10,2 C 70 % 1021,0 hPa 0,0 mm 22,0 km/h (4 Bft) W 270 5,3 C 31,8 km/h (5 Bft)
01.02.2016 07:30 10,5 C 10,1 C 70 % 1021,0 hPa 0,0 mm 23,0 km/h (4 Bft) W 270 5,3 C 34,2 km/h (5 Bft)
01.02.2016 07:35 10,5 C 10,1 C 70 % 1021,0 hPa 0,0 mm 24,9 km/h (4 Bft) NW 315 5,3 C 28,0 km/h (4 Bft)
01.02.2016 07:40 10,5 C 10,1 C 70 % 1021,0 hPa 0,0 mm 26,7 km/h (4 Bft) W 270 5,3 C 24,1 km/h (4 Bft)
01.02.2016 07:45 10,4 C 10,0 C 70 % 1021,1 hPa 0,0 mm 25,9 km/h (4 Bft) W-NW 292 5,2 C 27,2 km/h (4 Bft)
01.02.2016 07:50 10,3 C 9,9 C 70 % 1021,1 hPa 0,0 mm 24,9 km/h (4 Bft) W 270 5,1 C 65,3 km/h (8 Bft)
01.02.2016 07:55 10,4 C 9,9 C 70 % 1021,1 hPa 0,0 mm 28,0 km/h (4 Bft) NW 315 5,2 C 37,5 km/h (5 Bft)
01.02.2016 08:00 10,3 C 9,6 C 70 % 1021,1 hPa 0,0 mm 27,2 km/h (4 Bft) N-NO 22 5,1 C 19,7 km/h (3 Bft)
01.02.2016 08:05 10,3 C 9,8 C 70 % 1021,2 hPa 0,0 mm 25,6 km/h (4 Bft) SW 225 5,1 C 57,7 km/h (7 Bft)
01.02.2016 08:10 10,4 C 9,9 C 70 % 1021,2 hPa 0,0 mm 27,2 km/h (4 Bft) W-NW 292 5,2 C 36,8 km/h (5 Bft)
01.02.2016 08:15 10,3 C 9,9 C 70 % 1021,2 hPa 0,0 mm 27,4 km/h (4 Bft) NW 315 5,1 C 40,1 km/h (6 Bft)
01.02.2016 08:20 10,4 C 9,9 C 70 % 1021,2 hPa 0,0 mm 28,7 km/h (4 Bft) W 270 5,2 C 20,2 km/h (4 Bft)
01.02.2016 08:25 10,4 C 9,9 C 70 % 1021,7 hPa 0,0 mm 32,6 km/h (5 Bft) W-NW 292 5,2 C 37,5 km/h (5 Bft)
01.02.2016 08:30 10,2 C 9,7 C 70 % 1021,7 hPa 0,0 mm 29,5 km/h (5 Bft) W 270 5,0 C 44,3 km/h (6 Bft)
01.02.2016 08:35 10,3 C 9,8 C 70 % 1021,7 hPa 0,0 mm 27,2 km/h (4 Bft) W-SW 247 5,1 C 71,2 km/h (8 Bft)
01.02.2016 08:40 10,4 C 9,9 C 69 % 1021,7 hPa 0,0 mm 30,8 km/h (5 Bft) W-NW 292 5,0 C 48,7 km/h (6 Bft)
01.02.2016 08:45 10,3 C 9,8 C 70 % 1021,6 hPa 0,0 mm 30,0 km/h (5 Bft) N-NW 337 5,1 C 74,3 km/h (8 Bft)
01.02.2016 08:50 10,3 C 9,8 C 70 % 1021,6 hPa 0,0 mm 28,7 km/h (4 Bft) W-NW 292 5,1 C 30,3 km/h (5 Bft)
01.02.2016 08:55 10,3 C 9,8 C 70 % 1021,6 hPa 0,0 mm 27,7 km/h (4 Bft) W-SW 247 5,1 C 38,8 km/h (5 Bft)
01.02.2016 09:00 10,2 C 9,7 C 70 % 1021,6 hPa 0,0 mm 24,9 km/h (4 Bft) W-SW 247 5,0 C 30,0 km/h (5 Bft)
01.02.2016 09:05 10,2 C 9,5 C 70 % 1022,0 hPa 0,0 mm 24,9 km/h (4 Bft) S-SW 202 5,0 C 36,0 km/h (5 Bft)
01.02.2016 09:10 10,2 C 9,7 C 70 % 1022,0 hPa 0,0 mm 26,9 km/h (4 Bft) W 270 5,0 C 57,0 km/h (7 Bft)
01.02.2016 09:15 10,2 C 9,7 C 70 % 1022,0 hPa 0,0 mm 26,9 km/h (4 Bft) W 270 5,0 C 20,5 km/h (4 Bft)
01.02.2016 09:20 10,3 C 9,8 C 70 % 1022,0 hPa 0,0 mm 25,4 km/h (4 Bft) W-NW 292 5,1 C 52,0 km/h (7 Bft)
01.02.2016 09:25 10,2 C 9,8 C 70 % 1022,4 hPa 0,0 mm 23,6 km/h (4 Bft) SW 225 5,0 C 47,6 km/h (6 Bft)
01.02.2016 09:30 10,3 C 9,9 C 70 % 1022,4 hPa 0,0 mm 23,0 km/h (4 Bft) W-NW 292 5,1 C 34,4 km/h (5 Bft)
01.02.2016 09:35 10,3 C 10,0 C 70 % 1022,4 hPa 0,0 mm 21,2 km/h (4 Bft) NW 315 5,1 C 21,0 km/h (4 Bft)
01.02.2016 09:40 10,2 C 9,8 C 70 % 1022,4 hPa 0,0 mm 19,7 km/h (3 Bft) W-NW 292 5,0 C 38,3 km/h (5 Bft)
01.02.2016 09:45 10,3 C 9,8 C 70 % 1022,3 hPa 0,0 mm 19,7 km/h (3 Bft) NW 315 5,1 C 40,4 km/h (6 Bft)
01.02.2016 09:50 10,5 C 10,2 C 70 % 1022,3 hPa 0,0 mm 21,8 km/h (4 Bft) W 270 5,3 C 33,1 km/h (5 Bft)
01.02.2016 09:55 10,4 C 10,1 C 70 % 1022,3 hPa 0,0 mm 22,3 km/h (4 Bft) W-SW 247 5,2 C 41,7 km/h (6 Bft)
01.02.2016 10:00 10,4 C 10,1 C 70 % 1022,3 hPa 0,0 mm 20,7 km/h (4 Bft) W 270 5,2 C 21,0 km/h (4 Bft)
01.02.2016 10:05 10,3 C 10,1 C 70 % 1023,2 hPa 0,0 mm 21,8 km/h (4 Bft) SW 225 5,1 C 26,4 km/h (4 Bft)
01.02.2016 10:10 10,2 C 10,0 C 70 % 1023,2 hPa 0,0 mm 19,7 km/h (3 Bft) W 270 5,0 C 38,3 km/h (5 Bft)
01.02.2016 10:15 10,2 C 10,0 C 70 % 1023,2 hPa 0,0 mm 18,6 km/h (3 Bft) W-SW 247 5,0 C 26,2 km/h (4 Bft)
01.02.2016 10:20 10,4 C 10,0 C 70 % 1023,2 hPa 0,0 mm 18,9 km/h (3 Bft) NW 315 5,2 C 24,3 km/h (4 Bft)
01.02.2016 10:25 10,5 C 10,0 C 70 % 1023,3 hPa 0,0 mm 20,7 km/h (4 Bft) SW 225 5,3 C 18,6 km/h (3 Bft)
01.02.2016 10:30 10,5 C 10,2 C 70 % 1023,3 hPa 0,0 mm 20,5 km/h (4 Bft) W 270 5,3 C 22,0 km/h (4 Bft)
01.02.2016 10:34 10,5 C 10,1 C 70 % 1023,3 hPa 0,0 mm 20,5 km/h (4 Bft) W 270 5,3 C 22,0 km/h (4 Bft)
01.02.2016 10:35 10,5 C 10,3 C 70 % 1023,3 hPa 0,0 mm 18,6 km/h (3 Bft) W-SW 247 5,3 C 20,2 km/h (4 Bft)
01.02.2016 10:40 10,5 C 10,3 C 70 % 1023,3 hPa 0,0 mm 18,1 km/h (3 Bft) W-SW 247 5,3 C 33,7 km/h (5 Bft)
01.02.2016 10:45 10,4 C 10,2 C 70 % 1023,5 hPa 0,0 mm 19,2 km/h (3 Bft) W-NW 292 5,2 C 29,8 km/h (5 Bft)
01.02.2016 10:50 10,4 C 10,1 C 70 % 1023,5 hPa 0,0 mm 18,9 km/h (3 Bft) W 270 5,2 C 14,2 km/h (3 Bft)
01.02.2016 10:55 10,4 C 10,2 C 70 % 1023,5 hPa 0,0 mm 18,1 km/h (3 Bft) SW 225 5,2 C 26,4 km/h (4 Bft)
01.02.2016 11:00 10,3 C 10,2 C 71 % 1023,5 hPa 0,0 mm 17,1 km/h (3 Bft) S 180 5,3 C 37,0 km/h (5 Bft)
01.02.2016 11:05 10,4 C 10,2 C 71 % 1023,7 hPa 0,0 mm 18,4 km/h (3 Bft) W 270 5,4 C 36,5 km/h (5 Bft)
01.02.2016 11:10 10,5 C 10,1 C 70 % 1023,7 hPa 0,0 mm 20,5 km/h (4 Bft) W-SW 247 5,3 C 34,4 km/h (5 Bft)
01.02.2016 11:15 10,5 C 10,3 C 70 % 1023,7 hPa 0,0 mm 19,9 km/h (4 Bft) W 270 5,3 C 23,6 km/h (4 Bft)
01.02.2016 11:20 10,5 C 10,1 C 70 % 1023,7 hPa 0,0 mm 20,7 km/h (4 Bft) O-NO 67 5,3 C 27,4 km/h (4 Bft)
01.02.2016 11:25 10,6 C 10,2 C 70 % 1023,9 hPa 0,0 mm 19,9 km/h (4 Bft) S-SW 202 5,4 C 20,7 km/h (4 Bft)
01.02.2016 11:30 10,6 C 10,4 C 69 % 1023,9 hPa 0,0 mm 17,9 km/h (3 Bft) O-SO 112 5,2 C 24,9 km/h (4 Bft)
01.02.2016 11:35 10,7 C 10,6 C 69 % 1023,9 hPa 0,0 mm 16,1 km/h (3 Bft) W-NW 292 5,2 C 17,1 km/h (3 Bft)
01.02.2016 11:40 10,8 C 10,8 C 69 % 1023,9 hPa 0,0 mm 15,0 km/h (3 Bft) W-SW 247 5,3 C 17,6 km/h (3 Bft)
01.02.2016 11:45 10,9 C 11,0 C 69 % 1024,1 hPa 0,0 mm 15,5 km/h (3 Bft) NW 315 5,4 C 22,0 km/h (4 Bft)
01.02.2016 11:50 11,0 C 11,0 C 68 % 1024,1 hPa 0,0 mm 17,1 km/h (3 Bft) W-NW 292 5,3 C 17,6 km/h (3 Bft)
01.02.2016 11:55 11,0 C 11,0 C 68 % 1024,1 hPa 0,0 mm 17,9 km/h (3 Bft) W-SW 247 5,3 C 14,8 km/h (3 Bft)
01.02.2016 12:00 11,1 C 11,2 C 68 % 1024,1 hPa 0,0 mm 15,3 km/h (3 Bft) W 270 5,4 C 31,6 km/h (5 Bft)
01.02.2016 12:05 11,2 C 11,4 C 67 % 1024,2 hPa 0,0 mm 15,0 km/h (3 Bft) W 270 5,3 C 14,0 km/h (3 Bft)
01.02.2016 12:10 11,3 C 11,5 C 67 % 1024,2 hPa 0,0 mm 15,5 km/h (3 Bft) NW 315 5,4 C 13,7 km/h (3 Bft)
01.02.2016 12:15 11,4 C 11,7 C 67 % 1024,2 hPa 0,0 mm 13,2 km/h (3 Bft) W-NW 292 5,5 C 8,0 km/h (2 Bft)
01.02.2016 12:20 11,6 C 12,1 C 67 % 1024,2 hPa 0,0 mm 13,5 km/h (3 Bft) W-NW 292 5,7 C 15,3 km/h (3 Bft)
01.02.2016 12:25 11,6 C 12,2 C 67 % 1024,0 hPa 0,0 mm 15,3 km/h (3 Bft) W 270 5,7 C 25,4 km/h (4 Bft)
01.02.2016 12:30 11,5 C 11,9 C 66 % 1024,0 hPa 0,0 mm 17,9 km/h (3 Bft) W 270 5,4 C 23,8 km/h (4 Bft)
01.02.2016 12:35 11,4 C 11,4 C 66 % 1024,0 hPa 0,0 mm 18,6 km/h (3 Bft) W 270 5,3 C 22,0 km/h (4 Bft)
01.02.2016 12:40 11,3 C 11,2 C 67 % 1024,0 hPa 0,0 mm 16,8 km/h (3 Bft) W-SW 247 5,4 C 14,5 km/h (3 Bft)
01.02.2016 12:45 11,3 C 11,2 C 67 % 1024,1 hPa 0,0 mm 15,3 km/h (3 Bft) S-SW 202 5,4 C 7,0 km/h (2 Bft)
01.02.2016 12:50 11,2 C 11,0 C 66 % 1024,1 hPa 0,0 mm 15,5 km/h (3 Bft) W 270 5,1 C 22,8 km/h (4 Bft)
01.02.2016 12:55 11,2 C 11,1 C 66 % 1024,1 hPa 0,0 mm 14,0 km/h (3 Bft) W-SW 247 5,1 C 15,5 km/h (3 Bft)
01.02.2016 13:00 11,3 C 11,2 C 66 % 1024,1 hPa 0,0 mm 15,5 km/h (3 Bft) W-NW 292 5,2 C 7,8 km/h (2 Bft)
01.02.2016 13:05 11,2 C 11,1 C 66 % 1024,0 hPa 0,0 mm 14,8 km/h (3 Bft) W-SW 247 5,1 C 19,7 km/h (3 Bft)
01.02.2016 13:10 11,3 C 11,2 C 66 % 1024,0 hPa 0,0 mm 13,2 km/h (3 Bft) W-NW 292 5,2 C 27,2 km/h (4 Bft)
01.02.2016 13:15 11,3 C 11,3 C 66 % 1024,0 hPa 0,0 mm 12,7 km/h (3 Bft) W 270 5,2 C 19,9 km/h (4 Bft)
01.02.2016 13:20 11,3 C 11,3 C 66 % 1024,0 hPa 0,0 mm 12,4 km/h (3 Bft) W-NW 292 5,2 C 11,7 km/h (2 Bft)
01.02.2016 13:25 11,4 C 11,3 C 66 % 1023,8 hPa 0,0 mm 14,0 km/h (3 Bft) W-SW 247 5,3 C 19,9 km/h (4 Bft)
01.02.2016 13:30 11,3 C 11,3 C 66 % 1023,8 hPa 0,0 mm 11,4 km/h (2 Bft) W-SW 247 5,2 C 10,9 km/h (2 Bft)
01.02.2016 13:35 11,4 C 11,4 C 66 % 1023,8 hPa 0,0 mm 12,4 km/h (3 Bft) W 270 5,3 C 27,7 km/h (4 Bft)
01.02.2016 13:40 11,5 C 11,5 C 66 % 1023,8 hPa 0,0 mm 14,8 km/h (3 Bft) W-NW 292 5,4 C 23,6 km/h (4 Bft)
01.02.2016 13:45 11,6 C 11,5 C 65 % 1023,8 hPa 0,0 mm 15,8 km/h (3 Bft) W-NW 292 5,2 C 15,0 km/h (3 Bft)
01.02.2016 13:50 12,1 C 13,0 C 65 % 1023,8 hPa 0,0 mm 14,8 km/h (3 Bft) S 180 5,7 C 21,5 km/h (4 Bft)
01.02.2016 13:55 12,5 C 14,5 C 65 % 1023,8 hPa 0,0 mm 12,9 km/h (3 Bft) NW 315 6,1 C 8,5 km/h (2 Bft)
01.02.2016 14:01 12,7 C 15,2 C 63 % 1023,8 hPa 0,0 mm 15,0 km/h (3 Bft) W-SW 247 5,8 C 13,2 km/h (3 Bft)
01.02.2016 14:05 13,1 C 16,1 C 63 % 1023,5 hPa 0,0 mm 12,7 km/h (3 Bft) W-NW 292 6,2 C 12,7 km/h (3 Bft)
01.02.2016 14:10 13,1 C 16,1 C 61 % 1023,5 hPa 0,0 mm 12,4 km/h (3 Bft) W-SW 247 5,8 C 7,0 km/h (2 Bft)
01.02.2016 14:15 13,1 C 16,1 C 61 % 1023,5 hPa 0,0 mm 15,0 km/h (3 Bft) S-SW 202 5,8 C 20,2 km/h (4 Bft)
01.02.2016 14:20 13,0 C 15,9 C 61 % 1023,5 hPa 0,0 mm 15,3 km/h (3 Bft) NW 315 5,7 C 25,4 km/h (4 Bft)
01.02.2016 14:25 12,8 C 15,9 C 62 % 1023,6 hPa 0,0 mm 14,5 km/h (3 Bft) NW 315 5,7 C 8,3 km/h (2 Bft)
01.02.2016 14:30 12,7 C 16,3 C 62 % 1023,6 hPa 0,0 mm 12,9 km/h (3 Bft) W-NW 292 5,6 C 33,9 km/h (5 Bft)
01.02.2016 14:35 12,6 C 16,1 C 62 % 1023,6 hPa 0,0 mm 12,7 km/h (3 Bft) SW 225 5,5 C 15,3 km/h (3 Bft)
01.02.2016 14:40 12,4 C 15,6 C 63 % 1023,6 hPa 0,0 mm 15,0 km/h (3 Bft) W-NW 292 5,6 C 29,3 km/h (5 Bft)
01.02.2016 14:45 12,4 C 15,1 C 62 % 1024,0 hPa 0,0 mm 15,5 km/h (3 Bft) W-NW 292 5,3 C 9,3 km/h (2 Bft)
01.02.2016 14:50 12,3 C 14,3 C 62 % 1024,0 hPa 0,0 mm 15,3 km/h (3 Bft) NW 315 5,2 C 14,8 km/h (3 Bft)
01.02.2016 14:55 12,0 C 13,4 C 63 % 1024,0 hPa 0,0 mm 13,7 km/h (3 Bft) W-SW 247 5,2 C 17,9 km/h (3 Bft)
01.02.2016 15:00 11,8 C 12,6 C 63 % 1024,0 hPa 0,0 mm 14,8 km/h (3 Bft) W 270 5,0 C 11,9 km/h (2 Bft)
01.02.2016 15:05 11,8 C 12,1 C 64 % 1023,7 hPa 0,0 mm 13,2 km/h (3 Bft) W 270 5,2 C 11,4 km/h (2 Bft)
01.02.2016 15:10 11,8 C 12,1 C 64 % 1023,7 hPa 0,0 mm 9,8 km/h (2 Bft) SW 225 5,2 C 11,1 km/h (2 Bft)
01.02.2016 15:15 11,6 C 12,1 C 64 % 1023,7 hPa 0,0 mm 8,5 km/h (2 Bft) W-NW 292 5,0 C 8,3 km/h (2 Bft)
01.02.2016 15:20 11,5 C 11,9 C 65 % 1023,7 hPa 0,0 mm 7,3 km/h (2 Bft) W-SW 247 5,2 C 8,3 km/h (2 Bft)
01.02.2016 15:25 11,3 C 11,7 C 65 % 1024,0 hPa 0,0 mm 8,0 km/h (2 Bft) W-SW 247 5,0 C 15,8 km/h (3 Bft)
01.02.2016 15:30 11,1 C 11,1 C 65 % 1024,0 hPa 0,0 mm 9,6 km/h (2 Bft) W-SW 247 4,8 C 16,1 km/h (3 Bft)
01.02.2016 15:35 11,0 C 11,0 C 65 % 1024,0 hPa 0,0 mm 9,6 km/h (2 Bft) SW 225 4,7 C 7,0 km/h (2 Bft)
01.02.2016 15:40 10,9 C 10,8 C 66 % 1024,0 hPa 0,0 mm 9,6 km/h (2 Bft) W-NW 292 4,8 C 11,7 km/h (2 Bft)
01.02.2016 15:45 10,9 C 10,9 C 66 % 1023,9 hPa 0,0 mm 8,5 km/h (2 Bft) SW 225 4,8 C 10,4 km/h (2 Bft)
01.02.2016 15:50 10,9 C 10,8 C 66 % 1023,9 hPa 0,0 mm 8,8 km/h (2 Bft) W-SW 247 4,8 C 15,5 km/h (3 Bft)
01.02.2016 15:55 10,8 C 10,7 C 66 % 1023,9 hPa 0,0 mm 10,6 km/h (2 Bft) SW 225 4,7 C 5,4 km/h (1 Bft)
01.02.2016 16:00 10,6 C 10,5 C 67 % 1023,9 hPa 0,0 mm 9,8 km/h (2 Bft) SW 225 4,7 C 9,3 km/h (2 Bft)
01.02.2016 16:05 10,7 C 10,7 C 67 % 1023,7 hPa 0,0 mm 7,5 km/h (2 Bft) W 270 4,8 C 9,8 km/h (2 Bft)
01.02.2016 16:10 10,7 C 10,7 C 67 % 1023,7 hPa 0,0 mm 7,8 km/h (2 Bft) W-SW 247 4,8 C 12,4 km/h (3 Bft)
01.02.2016 16:15 10,7 C 10,7 C 67 % 1023,7 hPa 0,0 mm 8,3 km/h (2 Bft) NW 315 4,8 C 11,4 km/h (2 Bft)
01.02.2016 16:20 10,6 C 10,5 C 68 % 1023,7 hPa 0,0 mm 9,3 km/h (2 Bft) NW 315 4,9 C 15,0 km/h (3 Bft)
01.02.2016 16:25 10,6 C 10,4 C 68 % 1023,8 hPa 0,0 mm 11,4 km/h (2 Bft) W 270 4,9 C 20,7 km/h (4 Bft)
01.02.2016 16:30 10,6 C 10,4 C 68 % 1023,8 hPa 0,0 mm 15,0 km/h (3 Bft) NW 315 4,9 C 14,0 km/h (3 Bft)
01.02.2016 16:34 10,5 C 10,3 C 68 % 1023,8 hPa 0,0 mm 13,2 km/h (3 Bft) W-SW 247 4,8 C 7,0 km/h (2 Bft)
01.02.2016 16:40 10,1 C 10,1 C 69 % 1023,8 hPa 0,0 mm 8,0 km/h (2 Bft) NW 315 4,7 C 8,5 km/h (2 Bft)
01.02.2016 16:45 10,0 C 10,2 C 69 % 1023,7 hPa 0,0 mm 6,5 km/h (2 Bft) W-NW 292 4,6 C 7,5 km/h (2 Bft)
01.02.2016 16:50 10,0 C 10,0 C 70 % 1023,7 hPa 0,0 mm 6,0 km/h (2 Bft) W 270 4,8 C 8,3 km/h (2 Bft)
01.02.2016 16:55 10,0 C 10,0 C 70 % 1023,7 hPa 0,0 mm 6,0 km/h (2 Bft) S 180 4,8 C 5,4 km/h (1 Bft)
01.02.2016 17:00 9,9 C 9,8 C 71 % 1023,7 hPa 0,0 mm 7,3 km/h (2 Bft) W 270 4,9 C 16,3 km/h (3 Bft)
01.02.2016 17:05 9,8 C 9,8 C 71 % 1023,7 hPa 0,0 mm 6,2 km/h (2 Bft) NW 315 4,8 C 8,5 km/h (2 Bft)
01.02.2016 17:10 9,5 C 9,4 C 72 % 1023,7 hPa 0,0 mm 5,7 km/h (1 Bft) W-SW 247 4,7 C 6,2 km/h (2 Bft)
01.02.2016 17:15 9,5 C 9,4 C 72 % 1023,7 hPa 0,0 mm 6,0 km/h (2 Bft) W 270 4,7 C 9,3 km/h (2 Bft)
01.02.2016 17:20 9,3 C 9,1 C 73 % 1023,7 hPa 0,0 mm 7,5 km/h (2 Bft) NW 315 4,7 C 8,0 km/h (2 Bft)
01.02.2016 17:25 9,1 C 9,0 C 73 % 1023,4 hPa 0,0 mm 6,7 km/h (2 Bft) W 270 4,5 C 6,0 km/h (2 Bft)
01.02.2016 17:30 9,2 C 8,9 C 75 % 1023,4 hPa 0,0 mm 8,5 km/h (2 Bft) NW 315 5,0 C 12,4 km/h (3 Bft)
01.02.2016 17:35 9,2 C 8,8 C 75 % 1023,4 hPa 0,0 mm 10,6 km/h (2 Bft) SW 225 5,0 C 19,7 km/h (3 Bft)
01.02.2016 17:40 9,2 C 8,7 C 75 % 1023,4 hPa 0,0 mm 12,2 km/h (2 Bft) SW 225 5,0 C 14,5 km/h (3 Bft)
01.02.2016 17:45 9,2 C 8,8 C 75 % 1023,2 hPa 0,0 mm 12,7 km/h (3 Bft) W 270 5,0 C 11,4 km/h (2 Bft)
01.02.2016 17:50 9,0 C 8,5 C 75 % 1023,2 hPa 0,0 mm 11,1 km/h (2 Bft) S 180 4,8 C 11,7 km/h (2 Bft)
01.02.2016 17:55 8,8 C 8,4 C 76 % 1023,2 hPa 0,0 mm 10,6 km/h (2 Bft) W-SW 247 4,8 C 18,4 km/h (3 Bft)
01.02.2016 18:00 8,7 C 8,3 C 76 % 1023,2 hPa 0,0 mm 10,1 km/h (2 Bft) W 270 4,7 C 16,1 km/h (3 Bft)
01.02.2016 18:05 8,6 C 8,3 C 76 % 1023,1 hPa 0,0 mm 9,3 km/h (2 Bft) W-SW 247 4,6 C 9,3 km/h (2 Bft)
01.02.2016 18:10 8,5 C 8,1 C 77 % 1023,1 hPa 0,0 mm 9,1 km/h (2 Bft) SW 225 4,7 C 6,0 km/h (2 Bft)
01.02.2016 18:15 8,2 C 8,0 C 76 % 1023,1 hPa 0,0 mm 8,0 km/h (2 Bft) S 180 4,2 C 12,2 km/h (2 Bft)
01.02.2016 18:20 7,9 C 7,8 C 77 % 1023,1 hPa 0,0 mm 5,2 km/h (1 Bft) W 270 4,1 C 3,6 km/h (1 Bft)
01.02.2016 18:25 7,8 C 7,7 C 77 % 1023,4 hPa 0,0 mm 4,7 km/h (1 Bft) S 180 4,0 C 9,1 km/h (2 Bft)
01.02.2016 18:30 8,0 C 7,8 C 78 % 1023,4 hPa 0,0 mm 6,2 km/h (2 Bft) S-SW 202 4,4 C 6,2 km/h (2 Bft)
01.02.2016 18:35 7,8 C 7,5 C 78 % 1023,4 hPa 0,0 mm 7,0 km/h (2 Bft) N-NO 22 4,2 C 0,0 km/h (0 Bft)
01.02.2016 18:40 7,6 C 7,4 C 79 % 1023,4 hPa 0,0 mm 3,9 km/h (1 Bft) SW 225 4,2 C 5,4 km/h (1 Bft)
01.02.2016 18:45 7,4 C 7,2 C 79 % 1023,0 hPa 0,0 mm 2,8 km/h (1 Bft) S-SW 202 4,0 C 7,0 km/h (2 Bft)
01.02.2016 18:50 7,3 C 7,1 C 80 % 1023,0 hPa 0,0 mm 4,9 km/h (1 Bft) W-NW 292 4,1 C 6,2 km/h (2 Bft)
01.02.2016 18:55 7,1 C 6,9 C 79 % 1023,0 hPa 0,0 mm 6,0 km/h (2 Bft) W-SW 247 3,7 C 5,7 km/h (1 Bft)
01.02.2016 19:00 6,7 C 6,6 C 80 % 1023,0 hPa 0,0 mm 4,7 km/h (1 Bft) SW 225 3,5 C 7,0 km/h (2 Bft)
01.02.2016 19:05 6,6 C 6,5 C 80 % 1022,4 hPa 0,0 mm 3,4 km/h (1 Bft) NO 45 3,4 C 0,0 km/h (0 Bft)
01.02.2016 19:10 6,4 C 6,2 C 80 % 1022,4 hPa 0,0 mm 1,6 km/h (1 Bft) W 270 3,2 C 0,0 km/h (0 Bft)
01.02.2016 19:15 6,5 C 6,2 C 82 % 1022,4 hPa 0,0 mm 0,5 km/h (0 Bft) S-SO 157 3,7 C 0,0 km/h (0 Bft)
01.02.2016 19:20 6,5 C 6,2 C 82 % 1022,4 hPa 0,0 mm 0,8 km/h (0 Bft) SW 225 3,7 C 0,0 km/h (0 Bft)
01.02.2016 19:25 6,5 C 6,2 C 82 % 1022,5 hPa 0,0 mm 1,3 km/h (1 Bft) S 180 3,7 C 5,4 km/h (1 Bft)
01.02.2016 19:30 6,5 C 6,2 C 82 % 1022,5 hPa 0,0 mm 2,6 km/h (1 Bft) W-SW 247 3,7 C 6,0 km/h (2 Bft)
01.02.2016 19:35 6,5 C 6,2 C 81 % 1022,5 hPa 0,0 mm 3,6 km/h (1 Bft) W 270 3,5 C 2,6 km/h (1 Bft)
01.02.2016 19:40 6,9 C 6,6 C 80 % 1022,5 hPa 0,0 mm 3,9 km/h (1 Bft) S 180 3,7 C 6,0 km/h (2 Bft)
01.02.2016 19:45 7,5 C 7,1 C 78 % 1022,5 hPa 0,0 mm 5,4 km/h (1 Bft) W-SW 247 3,9 C 12,2 km/h (2 Bft)
01.02.2016 19:50 7,9 C 7,5 C 74 % 1022,5 hPa 0,0 mm 7,8 km/h (2 Bft) W-SW 247 3,6 C 9,1 km/h (2 Bft)
01.02.2016 19:55 8,5 C 7,9 C 70 % 1022,5 hPa 0,0 mm 9,6 km/h (2 Bft) W-SW 247 3,3 C 14,0 km/h (3 Bft)
01.02.2016 20:00 8,8 C 8,3 C 66 % 1022,5 hPa 0,0 mm 11,7 km/h (2 Bft) SW 225 2,8 C 15,5 km/h (3 Bft)
01.02.2016 20:05 8,4 C 8,0 C 64 % 1022,4 hPa 0,0 mm 10,6 km/h (2 Bft) S-SW 202 2,0 C 11,7 km/h (2 Bft)
01.02.2016 20:10 7,7 C 7,7 C 65 % 1022,4 hPa 0,0 mm 7,5 km/h (2 Bft) N-NO 22 1,5 C 8,3 km/h (2 Bft)
01.02.2016 20:15 6,8 C 7,2 C 67 % 1022,4 hPa 0,0 mm 6,7 km/h (2 Bft) O-SO 112 1,1 C 3,4 km/h (1 Bft)
01.02.2016 20:20 7,0 C 6,8 C 70 % 1022,4 hPa 0,0 mm 6,7 km/h (2 Bft) S-SO 157 1,9 C 3,9 km/h (1 Bft)
01.02.2016 20:25 6,6 C 6,6 C 70 % 1023,2 hPa 0,0 mm 4,9 km/h (1 Bft) O-SO 112 1,5 C 0,0 km/h (0 Bft)
01.02.2016 20:30 6,6 C 6,5 C 71 % 1023,2 hPa 0,0 mm 3,1 km/h (1 Bft) O-SO 112 1,7 C 4,1 km/h (1 Bft)
01.02.2016 20:35 6,8 C 6,7 C 71 % 1023,2 hPa 0,0 mm 3,1 km/h (1 Bft) SW 225 1,9 C 8,0 km/h (2 Bft)
01.02.2016 20:40 6,6 C 6,5 C 71 % 1023,2 hPa 0,0 mm 1,6 km/h (1 Bft) SO 135 1,7 C 0,0 km/h (0 Bft)
01.02.2016 20:45 6,1 C 6,1 C 71 % 1023,7 hPa 0,0 mm 1,6 km/h (1 Bft) SO 135 1,2 C 4,4 km/h (1 Bft)
01.02.2016 20:50 6,5 C 6,3 C 72 % 1023,7 hPa 0,0 mm 1,6 km/h (1 Bft) SW 225 1,8 C 4,7 km/h (1 Bft)
01.02.2016 20:55 7,1 C 6,7 C 73 % 1023,7 hPa 0,0 mm 2,8 km/h (1 Bft) SW 225 2,6 C 7,8 km/h (2 Bft)
01.02.2016 21:00 6,8 C 6,6 C 74 % 1023,7 hPa 0,0 mm 2,3 km/h (1 Bft) S-SO 157 2,5 C 0,0 km/h (0 Bft)
01.02.2016 21:05 6,9 C 6,6 C 75 % 1024,0 hPa 0,0 mm 1,3 km/h (1 Bft) SW 225 2,8 C 3,6 km/h (1 Bft)
01.02.2016 21:10 7,2 C 6,9 C 76 % 1024,0 hPa 0,0 mm 2,8 km/h (1 Bft) S 180 3,3 C 3,6 km/h (1 Bft)
01.02.2016 21:15 7,1 C 6,9 C 76 % 1024,0 hPa 0,0 mm 4,1 km/h (1 Bft) SW 225 3,2 C 10,9 km/h (2 Bft)
01.02.2016 21:20 7,0 C 6,8 C 76 % 1024,0 hPa 0,0 mm 4,1 km/h (1 Bft) S 180 3,1 C 8,3 km/h (2 Bft)
01.02.2016 21:25 6,8 C 6,6 C 76 % 1024,2 hPa 0,0 mm 3,6 km/h (1 Bft) S 180 2,9 C 3,9 km/h (1 Bft)
01.02.2016 21:30 6,9 C 6,7 C 77 % 1024,2 hPa 0,0 mm 3,6 km/h (1 Bft) W 270 3,2 C 6,0 km/h (2 Bft)
01.02.2016 21:35 7,0 C 6,8 C 77 % 1024,2 hPa 0,0 mm 4,1 km/h (1 Bft) O-NO 67 3,2 C 2,6 km/h (1 Bft)
01.02.2016 21:40 7,3 C 6,9 C 78 % 1024,2 hPa 0,0 mm 6,7 km/h (2 Bft) NW 315 3,7 C 5,7 km/h (1 Bft)
01.02.2016 21:45 7,1 C 6,7 C 78 % 1024,0 hPa 0,0 mm 7,8 km/h (2 Bft) W 270 3,5 C 3,9 km/h (1 Bft)
01.02.2016 21:50 7,3 C 6,9 C 79 % 1024,0 hPa 0,0 mm 7,8 km/h (2 Bft) W 270 3,9 C 7,5 km/h (2 Bft)
01.02.2016 21:55 7,0 C 6,8 C 78 % 1024,0 hPa 0,0 mm 7,0 km/h (2 Bft) W-NW 292 3,4 C 0,0 km/h (0 Bft)
01.02.2016 22:00 7,1 C 6,8 C 79 % 1024,0 hPa 0,0 mm 7,0 km/h (2 Bft) W 270 3,7 C 7,3 km/h (2 Bft)
01.02.2016 22:05 7,0 C 6,7 C 79 % 1024,0 hPa 0,0 mm 7,5 km/h (2 Bft) S 180 3,6 C 9,8 km/h (2 Bft)
01.02.2016 22:10 7,0 C 6,6 C 79 % 1024,0 hPa 0,0 mm 8,0 km/h (2 Bft) SO 135 3,6 C 3,9 km/h (1 Bft)
01.02.2016 22:15 6,7 C 6,4 C 79 % 1024,0 hPa 0,0 mm 7,3 km/h (2 Bft) W-SW 247 3,3 C 10,1 km/h (2 Bft)
01.02.2016 22:20 6,8 C 6,4 C 80 % 1024,0 hPa 0,0 mm 7,3 km/h (2 Bft) W-SW 247 3,6 C 10,6 km/h (2 Bft)
01.02.2016 22:25 6,7 C 6,2 C 80 % 1024,1 hPa 0,0 mm 8,5 km/h (2 Bft) SW 225 3,5 C 10,4 km/h (2 Bft)
01.02.2016 22:30 6,3 C 6,1 C 79 % 1024,1 hPa 0,0 mm 6,0 km/h (2 Bft) W-SW 247 2,9 C 0,0 km/h (0 Bft)
01.02.2016 22:34 6,1 C 6,0 C 79 % 1024,1 hPa 0,0 mm 3,1 km/h (1 Bft) W-SW 247 2,7 C 0,0 km/h (0 Bft)
01.02.2016 22:35 6,1 C 6,0 C 79 % 1024,1 hPa 0,0 mm 3,1 km/h (1 Bft) W-SW 247 2,7 C 0,0 km/h (0 Bft)
01.02.2016 22:40 6,2 C 5,9 C 81 % 1024,1 hPa 0,0 mm 0,3 km/h (0 Bft) S-SO 157 3,2 C 0,0 km/h (0 Bft)
01.02.2016 22:45 6,1 C 5,8 C 82 % 1024,5 hPa 0,0 mm 0,8 km/h (0 Bft) O-SO 112 3,3 C 0,0 km/h (0 Bft)
01.02.2016 22:50 5,9 C 5,6 C 83 % 1024,5 hPa 0,0 mm 1,0 km/h (0 Bft) W 270 3,2 C 2,6 km/h (1 Bft)
01.02.2016 22:55 5,9 C 5,5 C 83 % 1024,5 hPa 0,0 mm 1,0 km/h (0 Bft) S 180 3,2 C 0,0 km/h (0 Bft)
01.02.2016 23:00 5,8 C 5,5 C 83 % 1024,5 hPa 0,0 mm 2,8 km/h (1 Bft) SW 225 3,1 C 3,9 km/h (1 Bft)
01.02.2016 23:05 5,7 C 5,4 C 83 % 1024,5 hPa 0,0 mm 2,8 km/h (1 Bft) W-SW 247 3,0 C 7,3 km/h (2 Bft)
01.02.2016 23:10 5,6 C 5,3 C 83 % 1024,5 hPa 0,0 mm 3,9 km/h (1 Bft) S-SO 157 2,9 C 5,2 km/h (1 Bft)
01.02.2016 23:15 5,7 C 5,4 C 83 % 1024,5 hPa 0,0 mm 4,7 km/h (1 Bft) S 180 3,0 C 4,1 km/h (1 Bft)
01.02.2016 23:20 5,4 C 5,2 C 83 % 1024,5 hPa 0,0 mm 4,1 km/h (1 Bft) SW 225 2,7 C 9,8 km/h (2 Bft)
01.02.2016 23:25 5,4 C 5,2 C 83 % 1024,3 hPa 0,0 mm 3,9 km/h (1 Bft) SW 225 2,7 C 5,4 km/h (1 Bft)
01.02.2016 23:30 5,3 C 5,1 C 84 % 1024,3 hPa 0,0 mm 4,9 km/h (1 Bft) S 180 2,8 C 6,2 km/h (2 Bft)
01.02.2016 23:35 5,4 C 5,1 C 84 % 1024,3 hPa 0,0 mm 4,7 km/h (1 Bft) SW 225 2,9 C 6,0 km/h (2 Bft)
01.02.2016 23:40 5,3 C 5,0 C 85 % 1024,3 hPa 0,0 mm 4,1 km/h (1 Bft) SW 225 3,0 C 8,3 km/h (2 Bft)
01.02.2016 23:45 5,3 C 5,0 C 85 % 1024,2 hPa 0,0 mm 3,1 km/h (1 Bft) SO 135 3,0 C 4,4 km/h (1 Bft)
01.02.2016 23:50 5,1 C 4,8 C 85 % 1024,2 hPa 0,0 mm 2,1 km/h (1 Bft) S 180 2,8 C 2,8 km/h (1 Bft)
01.02.2016 23:55 5,1 C 4,8 C 86 % 1024,2 hPa 0,0 mm 1,0 km/h (0 Bft) W-SW 247 3,0 C 0,0 km/h (0 Bft)
_ Min-Zeit 23:55 23:55 14:20 00:00 - 22:40 - - 20:15 23:55
Minimum _ 5,1 C 4,8 C 61 % 1015,1 hPa - 0,3 km/h (0 Bft) - - 1,1 C 0,0 km/h (0 Bft)
_ Max-Zeit 14:15 14:30 00:05 23:20 23:55 08:25 - - 04:40 08:45
Maximum _ 13,1 C 16,3 C 87 % 1024,5 hPa 0,0 mm 32,6 km/h
W-NW (5 Bft)
- - 6,9 C 74,3 km/h
N-NW (8 Bft)
Durchschnitt _ 9,5 C 9,3 C 74 % 1021,5 hPa #0,0 mm 15,5 km/h (3 Bft) W - 5,0 C 21,5 km/h (4 Bft)